Location: ??
(35.4032°N, 139.3073°E)
Time: 05:49:16
(UTC+00:00)

CZ-3 Stage 3 - Visible Passes

Search period start: 16 July 2024 00:00
Search period end: 26 July 2024 00:00
Orbit: 500 x 34931 km, 30.7° (Epoch: 14 July)

Date Brightness Start Highest point End Pass type
(mag) Time Alt. Az. Time Alt. Az. Time Alt. Az.
17 Jul 5.7 04:38:15 10° SW 06:17:27 18° WSW 13:03:30 37° SSW visible
20 Jul 11.4 05:31:02 10° WSW 06:31:57 13° WSW 07:54:33 10° WSW visible
20 Jul 6.1 12:59:00 10° WNW 13:24:21 29° SW 13:25:59 28° SW visible
23 Jul 6.5 13:33:56 10° W 13:47:10 19° WSW 13:48:28 19° SW visible
24 Jul 6.5 01:18:57 10° SSW 10:17:00 75° SSW 10:28:50 10° ESE visible
